Showing default

HULIANWANG DIGUI-08, 62330

Orbit data source: Space-Track

HULIANWANG DIGUI-08, 62330 is a payload satellite owned by Zhongguo Xingwang (CN) in LEO that was launched on Mon, 16 Dec 2024 UTC via a CHANG ZHENG 5B/YZ-2 launch vehicle from the Wenchang Satellite Launch Center (WSC). Payload-class satellites include a variety of spacecraft equipped with specific instruments for various scientific and technological missions. These include communications satellites like Starlink; space stations such as the ISS; scientific satellites like the Hubble; Earth observation satellites from companies like Planet Labs, Umbra, and HawkEye 360; GPS; miniature CubeSats for education and research; and military/defense satellites.

Loading next visibility...
Identifier
62330, 2024-240H
Orbit
LEO
Country
Flag of CNCN / PRC
Related business
Manufacturer
CAST?
Mission
Operational Civil Communications
Bus & Motor
XINGWANG CL, Unknown motor
Mass
~800 kg wet, ~800 kg dry
Launch date (UTC)
2024-12-16 (1 year ago)
Launch vehicle
CHANG ZHENG 5B/YZ-2
Launch site
Wenchang Satellite Launch Center (WSC)
Object type
Payload
Rocket body
Debris
Shape & HBR
Box + 2 Pan, 5.0 m
Radar Cross Section
5.935 m², Large (>1 m²)

Expand to show TLE details & history
Last TLE update: 7 hours ago

TLE from 7 hours ago
0 HULIANWANG DIGUI-08
1 62330U 24240H   26061.82285999  .00000054  00000-0  90949-4 0  9997
2 62330  86.5059  19.2237 0002119  86.9229 273.2148 13.24420698 58562
Epoch: 2026-03-02T19:44Z
TLE epoch observation values (Epoch: 2026-03-02T19:44:55.103Z)
Latitude
0.00005°
Longitude
-77.61664°
Altitude
1,170.687 km
Speed
7.268 km/s
True Right ascension
01h 16m 53s
True Declination
0° 00' 00"
Sunlit
Object was in daylight at epoch
Visualization orbit readout
Latitude
Unknown
Longitude
Unknown
Altitude
Unknown
Speed
Unknown
Apparent Right ascension
Unknown
Apparent Declination
Unknown
Sunlit
N/A
Visualization observer readout
Local Sidereal Time
06:30:07
Azimuth
Unknown
Elevation
Unknown
Doppler factor
Unknown
Orbital elements
Apogee altitude
1,166.6 km
Perigee altitude
1,163.403 km
Semi-major axis
7,543.138 km
Eccentricity
0.00021
Inclination
86.5059°
RAAN
19.2237°
Arg. of periapsis
86.9229°
True anomaly
273.19056°
Mean anomaly
273.2148°
Eccentric anomaly
273.20268°
Mean motion
3.31295 °/min
Orbital period
108.66 mins
BSTAR
0.000090949
Loading maneuver chart data...
Computing Atmospheric mass density...
Loading historical data...
Loading historical data...
Loading historical data...
Loading historical data...
Loading historical data...
Loading historical data...
Loading historical data...

Documentation

Showing up to 5 results
|